Weather History for LTBA - October, 2014

Change the Weather History Date:

Monday, October 20, 2014

  Actual Average Record
Temperature  
Mean Temperature 54 °F -  
Max Temperature 59 °F 60 °F 71 °F (2003)
Min Temperature 48 °F 50 °F 46 °F (2005)
Degree Days  
Heating Degree Days 12    
Growing Degree Days 4 (Base 50)    
Moisture  
Dew Point 42 °F    
Average Humidity 58    
Maximum Humidity 71    
Minimum Humidity 41    
Precipitation  
Precipitation 0.00 in - - ()
Sea Level Pressure  
Sea Level Pressure 30.20 in    
Wind  
Wind Speed 5 mph ()    
Max Wind Speed 8 mph    
Max Gust Speed -    
Visibility 6.0 miles    
Events      
Averages and records for this station are not official NWS values.
T = Trace of Precipitation, MM = Missing Value Source: Averaged Metar Reports

Daily Weather History Graph

Daily Weather History Graph

Search for Another Location

Airport or City:

Trip Planner

Search our weather history database for the weather conditions in past years. The results will help you decide how hot, cold, wet, or windy it might be!

Date:

Astronomy

Oct. 20, 2014 Rise Set
Actual Time 7:21 AM EEST 6:17 PM EEST
Civil Twilight 6:53 AM EEST 6:44 PM EEST
Nautical Twilight 6:21 AM EEST 7:16 PM EEST
Astronomical Twilight 5:49 AM EEST 7:48 PM EEST
Moon 3:49 AM EEST (10/20) 4:31 PM EEST (10/20)
Length of Visible Light 11h 51m
Length of Day
10h 55m
Waning Crescent, 12% of the Moon is Illuminated
Oct 20
Waning Crescent
Oct 24
New
Oct 31
First Quarter
Nov 7
Full
Nov 14
Last Quarter

Hourly Weather History & Observations

Time (EEST) Temp. Dew Point Humidity Pressure Visibility Wind Dir Wind Speed Gust Speed Precip Events Conditions
12:00 AM 56 °F 39 °F 42% 30.36 in 6 mi NE 8.1 mph - -   Scattered Clouds
12:20 AM 55.4 °F 41.0 °F 58% 30.33 in - NE 5.8 mph - N/A   Clear
12:50 AM 53.6 °F 41.0 °F 62% 30.33 in - NE 4.6 mph - N/A   Clear
1:20 AM 53.6 °F 41.0 °F 62% 30.33 in - NE 6.9 mph - N/A   Clear
1:50 AM 53.6 °F 41.0 °F 62% 30.33 in - NE 6.9 mph - N/A   Clear
2:20 AM 53.6 °F 39.2 °F 58% 30.33 in - ENE 5.8 mph - N/A   Clear
2:50 AM 53.6 °F 39.2 °F 58% 30.30 in - ENE 5.8 mph - N/A   Clear
3:00 AM 53 °F 39 °F 48% 30.32 in 6 mi ENE 5.8 mph - -  
3:20 AM 53.6 °F 39.2 °F 58% 30.30 in - NE 5.8 mph - N/A   Clear
3:50 AM 51.8 °F 41.0 °F 67% 30.30 in - NE 5.8 mph - N/A   Clear
4:20 AM 51.8 °F 41.0 °F 67% 30.27 in - NE 4.6 mph - N/A   Clear
4:50 AM 51.8 °F 41.0 °F 67% 30.27 in - NE 5.8 mph - N/A   Clear
5:20 AM 50.0 °F 41.0 °F 71% 30.27 in - North 5.8 mph - N/A   Clear
5:50 AM 50.0 °F 39.2 °F 66% 30.27 in - NNE 5.8 mph - N/A   Clear
6:00 AM 50 °F 40 °F 60% 30.29 in 6 mi NNE 5.8 mph - -  
6:20 AM 48.2 °F 39.2 °F 71% 30.27 in - North 4.6 mph - N/A   Clear
6:50 AM 51.8 °F 39.2 °F 62% 30.27 in - NE 6.9 mph - N/A   Clear
7:20 AM 51.8 °F 41.0 °F 67% 30.24 in - NE 5.8 mph - N/A   Clear
7:50 AM 53.6 °F 41.0 °F 62% 30.24 in - ENE 5.8 mph - N/A   Clear
8:20 AM 55.4 °F 41.0 °F 58% 30.24 in - NE 5.8 mph - N/A   Clear
8:50 AM 55.4 °F 41.0 °F 58% 30.24 in - ENE 6.9 mph - N/A   Clear
9:00 AM 55 °F 41 °F 48% 30.26 in 6 mi ENE 6.9 mph - -  
9:20 AM 55.4 °F 41.0 °F 58% 30.24 in - NE 5.8 mph - N/A   Clear
9:50 AM 55.4 °F 41.0 °F 58% 30.24 in - East 6.9 mph - N/A   Clear
10:20 AM 57.2 °F 42.8 °F 59% 30.24 in - SE 6.9 mph - N/A   Clear
10:50 AM 57.2 °F 41.0 °F 55% 30.24 in - ESE 6.9 mph - N/A   Clear
11:20 AM 59.0 °F 41.0 °F 51% 30.24 in - Variable 4.6 mph - N/A   Clear
11:50 AM 59.0 °F 42.8 °F 55% 30.24 in - Variable 3.5 mph - N/A   Clear
12:00 PM 59 °F 41 °F 41% 30.25 in 6 mi SE 3.5 mph - -  
12:20 PM 57.2 °F 46.4 °F 67% 30.24 in - South 6.9 mph - N/A   Clear
12:50 PM 59.0 °F 46.4 °F 63% 30.21 in 6.2 mi South 5.8 mph - N/A   Partly Cloudy
1:20 PM 59.0 °F 46.4 °F 63% 30.18 in - SSW 6.9 mph - N/A   Clear
1:50 PM 57.2 °F 44.6 °F 63% 30.18 in - SSW 8.1 mph - N/A   Clear
2:20 PM 59.0 °F 42.8 °F 55% 30.18 in - SSW 6.9 mph - N/A   Clear
2:50 PM 59.0 °F 42.8 °F 55% 30.15 in - SSW 8.1 mph - N/A   Clear
3:00 PM 59 °F 42 °F 41% 30.17 in 6 mi SSW 8.1 mph - -  
3:20 PM 59.0 °F 42.8 °F 55% 30.15 in - SSW 6.9 mph - N/A   Clear
3:50 PM 59.0 °F 42.8 °F 55% 30.15 in - SW 6.9 mph - N/A   Clear
4:20 PM 59.0 °F 41.0 °F 51% 30.12 in - SW 6.9 mph - N/A   Clear
4:50 PM 59.0 °F 42.8 °F 55% 30.12 in - SSW 4.6 mph - N/A   Clear
5:20 PM 59.0 °F 42.8 °F 55% 30.12 in - SW 5.8 mph - N/A   Clear
5:50 PM 59.0 °F 44.6 °F 59% 30.12 in - WSW 4.6 mph - N/A   Clear
6:00 PM 58 °F 44 °F 48% 30.13 in 6 mi WSW 4.6 mph - -  
6:20 PM 57.2 °F 44.6 °F 63% 30.12 in - WSW 3.5 mph - N/A   Clear
6:50 PM 57.2 °F 44.6 °F 63% 30.12 in - Variable 2.3 mph - N/A   Clear
7:20 PM 55.4 °F 41.0 °F 58% 30.09 in - Variable 1.2 mph - N/A   Clear
7:50 PM 59.0 °F 41.0 °F 51% 30.09 in - Variable 4.6 mph - N/A   Clear
8:20 PM 57.2 °F 41.0 °F 55% 30.09 in - South 4.6 mph - N/A   Clear
8:50 PM 57.2 °F 42.8 °F 59% 30.09 in - South 4.6 mph - N/A   Clear
9:00 PM 56 °F 42 °F 49% 30.10 in 6 mi South 4.6 mph - -  
9:20 PM 57.2 °F 42.8 °F 59% 30.09 in - South 4.6 mph - N/A   Clear
9:50 PM 59.0 °F 42.8 °F 55% 30.09 in - SSW 4.6 mph - N/A   Clear
10:20 PM 57.2 °F 42.8 °F 59% 30.09 in - SSW 4.6 mph - N/A   Clear
10:50 PM 57.2 °F 42.8 °F 59% 30.09 in - SW 4.6 mph - N/A   Clear
11:20 PM 57.2 °F 42.8 °F 59% 30.06 in - SSW 4.6 mph - N/A   Clear
11:50 PM 57.2 °F 42.8 °F 59% 30.06 in - SSW 4.6 mph - N/A   Clear